Location: New York
(40.7127°N, 74.0060°W)
Time: 17:32:19
(UTC-04:00)

UNISAT 6 - Pass Details

Date: 01 May 2024
Orbit: 593 x 667 km, 97.7° (Epoch: 27 May)

Event Time Altitude Azimuth Distance (km) Brightness Sun altitude
Rises 04:25:04 0° 151° (SSE) 2,892 ? -15.6°
Reaches altitude 10° 04:27:20 10° 145° (SE) 1,978 ? -15.2°
Maximum altitude 04:31:26 45° 73° (ENE) 831 ? -14.6°
Drops below altitude 10° 04:35:29 10° 1° (N) 1,955 ? -14.0°
Sets 04:37:42 0° 355° (N) 2,855 ? -13.6°
